Hourly Data Report for November 04, 2019

All times are specified in Local Standard Time (LST). Add 1 hour to adjust for Daylight Saving Time where and when it is observed.

PINAWA
MANITOBA
Current Station Operator: ECCC - MSC

50°10'38.020" N
96°03'53.000" W
268.00 m
503B1ER
71448
WEA

Download Data

Hourly Data (November 2019)
Hourly Data Report for November 4, 2019
TIME Temp Definition
°C
Dew Point Definition
°C
Rel Hum Definition
%
Wind Dir Definition
10's deg

Wind Spd Definition
km/h
Visibility Definition
km
Stn Press Definition
kPa
Hmdx Definition


Wind Chill Definition


Weather Definition


00:00 -2.4 LegendMM LegendMM 28 6   97.90   -5 LegendNANA
01:00 -2.0 LegendMM LegendMM 28 7   97.90   -5 LegendNANA
02:00 -1.8 LegendMM LegendMM 29 10   97.91   -5 LegendNANA
03:00 -1.7 LegendMM LegendMM 29 7   97.93   -4 LegendNANA
04:00 -2.0 LegendMM LegendMM 28 9   97.95   -5 LegendNANA
05:00 -2.2 LegendMM LegendMM 29 11   97.96   -6 LegendNANA
06:00 -1.9 LegendMM LegendMM 31 14   98.00   -7 LegendNANA
07:00 -3.4 LegendMM LegendMM 35 15   98.08   -9 LegendNANA
08:00 -4.2 LegendMM LegendMM 35 14   98.18   -9 LegendNANA
09:00 -5.1 LegendMM LegendMM 34 11   98.27   -10 LegendNANA
10:00 -4.6 LegendMM LegendMM 33 18   98.30   -11 LegendNANA
11:00 -4.4 LegendMM LegendMM 31 26   98.34   -12 LegendNANA
12:00 -4.2 LegendMM LegendMM 31 25   98.34   -11 LegendNANA
13:00 -4.7 LegendMM LegendMM 31 24   98.36   -12 LegendNANA
14:00 -4.9 LegendMM LegendMM 31 18   98.38   -11 LegendNANA
15:00 -4.9 LegendMM LegendMM 31 25   98.43   -12 LegendNANA
16:00 -6.4 LegendMM LegendMM 32 21   98.52   -13 LegendNANA
17:00 -7.0 LegendMM LegendMM 31 20   98.60   -14 LegendNANA
18:00 -7.7 LegendMM LegendMM 30 23   98.68   -15 LegendNANA
19:00 -7.6 LegendMM LegendMM 30 16   98.71   -14 LegendNANA
20:00 -7.4 LegendMM LegendMM 31 19   98.71   -14 LegendNANA
21:00 -7.6 LegendMM LegendMM 30 18   98.73   -14 LegendNANA
22:00 -7.7 LegendMM LegendMM 30 15   98.78   -14 LegendNANA
23:00 -7.8 LegendMM LegendMM 29 15   98.81   -14 LegendNANA

Notes on Data Quality.

Legend

  • E = Estimated
  • M = Missing
  • NA = Not Available
Date modified: